When you browse on this site, cookies collect data to enhance your experience and personalize the content and advertising you see.
Visit our Privacy Policy to learn more. By continuing to use the site, you agree to this use of cookies and data.
  • In Hungary
  • List of Countries
  • For 7 days
  • Water Temperature
  • Satellite Maps
  • Weather Map
  • News
  • Weather Widgets
  • user-avatar
    Login

    Hourly Weather Ugolnoe

    Today, 20 January, Sunday

    Time Temperature Precipitation Wind Pressure Humidity
    00:00 -8°C° 0 mm 2 mps 750 mmHg 96%
    01:00 -8°C° 0 mm 2 mps 750 mmHg 96%
    02:00 -9°C° 0.1 mm 3 mps 750 mmHg 96%
    03:00 -9°C° 0.1 mm 3 mps 749 mmHg 96%
    04:00 -8°C° 0.1 mm 3 mps 749 mmHg 97%
    05:00 -8°C° 0.1 mm 3 mps 749 mmHg 96%
    06:00 -9°C° 0.1 mm 4 mps 748 mmHg 96%
    07:00 -9°C° 0.1 mm 4 mps 748 mmHg 96%
    08:00 -9°C° 0.1 mm 4 mps 748 mmHg 96%
    09:00 -8°C° 0.1 mm 4 mps 748 mmHg 96%
    10:00 -8°C° 0.1 mm 5 mps 748 mmHg 96%
    11:00 -7°C° 0.2 mm 5 mps 748 mmHg 95%
    12:00 -6°C° 0.2 mm 5 mps 748 mmHg 95%
    13:00 -4°C° 0.2 mm 5 mps 748 mmHg 94%
    14:00 -5°C° 0 mm 6 mps 749 mmHg 92%
    15:00 -6°C° 0 mm 6 mps 749 mmHg 90%
    16:00 -8°C° 0 mm 7 mps 750 mmHg 88%
    17:00 -10°C° 0 mm 6 mps 751 mmHg 90%
    18:00 -13°C° 0 mm 5 mps 751 mmHg 91%
    19:00 -15°C° 0 mm 4 mps 752 mmHg 93%
    20:00 -16°C° 0 mm 4 mps 753 mmHg 94%
    21:00 -18°C° 0 mm 4 mps 754 mmHg 94%
    22:00 -18°C° 0 mm 3 mps 754 mmHg 95%
    23:00 -19°C° 0 mm 3 mps 755 mmHg 96%

    Tomorrow, 21 January, Monday

    Time Temperature Precipitation Wind Pressure Humidity
    00:00 -18°C° 0 mm 2 mps 755 mmHg 97%
    01:00 -19°C° 0 mm 2 mps 756 mmHg 99%
    02:00 -18°C° 0 mm 2 mps 756 mmHg 99%
    03:00 -16°C° 0 mm 1 mps 757 mmHg 99%
    04:00 -16°C° 0 mm 1 mps 757 mmHg 99%
    05:00 -17°C° 0 mm 1 mps 758 mmHg 99%
    06:00 -17°C° 0 mm 1 mps 758 mmHg 99%
    07:00 -17°C° 0 mm 1 mps 758 mmHg 99%
    08:00 -19°C° 0 mm 2 mps 758 mmHg 99%
    09:00 -19°C° 0 mm 2 mps 759 mmHg 98%
    10:00 -19°C° 0 mm 2 mps 759 mmHg 98%
    11:00 -18°C° 0 mm 2 mps 759 mmHg 97%
    12:00 -18°C° 0 mm 3 mps 759 mmHg 96%
    13:00 -17°C° 0 mm 3 mps 759 mmHg 95%
    14:00 -17°C° 0 mm 3 mps 758 mmHg 95%
    15:00 -18°C° 0 mm 3 mps 758 mmHg 94%
    16:00 -18°C° 0 mm 3 mps 758 mmHg 94%
    17:00 -18°C° 0 mm 3 mps 757 mmHg 94%
    18:00 -19°C° 0 mm 3 mps 757 mmHg 94%
    19:00 -19°C° 0 mm 3 mps 757 mmHg 93%
    20:00 -20°C° 0 mm 4 mps 756 mmHg 92%
    21:00 -19°C° 0 mm 4 mps 756 mmHg 91%
    22:00 -20°C° 0 mm 5 mps 755 mmHg 90%
    23:00 -20°C° 0 mm 6 mps 755 mmHg 88%

    Day after tomorrow, 22 January, Tuesday

    Time Temperature Precipitation Wind Pressure Humidity
    00:00 -18°C° 0 mm 6 mps 754 mmHg 86%
    01:00 -19°C° 0 mm 7 mps 753 mmHg 84%
    02:00 -18°C° 0 mm 7 mps 753 mmHg 82%
    03:00 -15°C° 0 mm 7 mps 752 mmHg 80%
    04:00 -15°C° 0 mm 8 mps 751 mmHg 77%
    05:00 -13°C° 0.3 mm 8 mps 751 mmHg 82%
    06:00 -14°C° 0.3 mm 9 mps 750 mmHg 87%
    07:00 -12°C° 0.3 mm 9 mps 749 mmHg 92%
    08:00 -10°C° 0.9 mm 10 mps 749 mmHg 92%
    09:00 -8°C° 0.9 mm 10 mps 748 mmHg 93%
    10:00 -5°C° 0.9 mm 10 mps 748 mmHg 93%
    11:00 -5°C° 0.8 mm 10 mps 748 mmHg 93%
    12:00 -5°C° 0.8 mm 10 mps 747 mmHg 92%
    13:00 -4°C° 0.8 mm 11 mps 747 mmHg 92%
    14:00 -5°C° 0.8 mm 9 mps 747 mmHg 93%
    15:00 -6°C° 0.8 mm 7 mps 748 mmHg 94%
    16:00 -6°C° 0.8 mm 6 mps 748 mmHg 95%
    17:00 -8°C° 0.2 mm 5 mps 748 mmHg 95%
    18:00 -10°C° 0.2 mm 4 mps 749 mmHg 94%
    19:00 -14°C° 0.2 mm 4 mps 749 mmHg 94%
    20:00 -14°C° 0 mm 3 mps 750 mmHg 95%
    21:00 -15°C° 0 mm 3 mps 751 mmHg 95%
    22:00 -16°C° 0 mm 3 mps 751 mmHg 96%
    23:00 -17°C° 0 mm 3 mps 752 mmHg 97%

    23 January, Wednesday

    Time Temperature Precipitation Wind Pressure Humidity
    00:00 -18°C° 0 mm 3 mps 752 mmHg 97%
    01:00 -19°C° 0 mm 3 mps 753 mmHg 98%
    02:00 -21°C° 0 mm 3 mps 753 mmHg 98%
    03:00 -21°C° 0 mm 3 mps 754 mmHg 98%
    04:00 -22°C° 0 mm 3 mps 754 mmHg 99%
    05:00 -21°C° 0 mm 2 mps 754 mmHg 98%
    06:00 -23°C° 0 mm 2 mps 755 mmHg 97%
    07:00 -24°C° 0 mm 2 mps 755 mmHg 96%
    08:00 -24°C° 0 mm 2 mps 756 mmHg 95%
    09:00 -24°C° 0 mm 2 mps 756 mmHg 95%
    10:00 -24°C° 0 mm 2 mps 757 mmHg 94%
    11:00 -24°C° 0 mm 2 mps 757 mmHg 94%
    12:00 -23°C° 0 mm 2 mps 757 mmHg 93%
    13:00 -23°C° 0 mm 2 mps 758 mmHg 93%
    14:00 -23°C° 0 mm 2 mps 758 mmHg 94%
    15:00 -24°C° 0 mm 2 mps 758 mmHg 94%
    16:00 -25°C° 0 mm 2 mps 758 mmHg 95%
    17:00 -26°C° 0 mm 2 mps 759 mmHg 95%
    18:00 -26°C° 0 mm 2 mps 759 mmHg 95%
    19:00 -27°C° 0 mm 2 mps 760 mmHg 95%
    20:00 -28°C° 0 mm 2 mps 760 mmHg 94%
    21:00 -28°C° 0 mm 2 mps 760 mmHg 93%
    22:00 -28°C° 0 mm 2 mps 761 mmHg 93%
    23:00 -28°C° 0 mm 2 mps 761 mmHg 92%

    24 January, Thursday

    Time Temperature Precipitation Wind Pressure Humidity
    00:00 -28°C° 0 mm 2 mps 761 mmHg 91%
    01:00 -28°C° 0 mm 2 mps 762 mmHg 91%
    02:00 -28°C° 0 mm 2 mps 762 mmHg 90%
    03:00 -28°C° 0 mm 2 mps 762 mmHg 90%
    04:00 -25°C° 0 mm 1 mps 763 mmHg 89%
    05:00 -25°C° 0 mm 1 mps 763 mmHg 89%
    06:00 -27°C° 0 mm 1 mps 763 mmHg 89%
    07:00 -27°C° 0 mm 1 mps 764 mmHg 90%
    08:00 -25°C° 0 mm 1 mps 764 mmHg 89%
    09:00 -24°C° 0 mm 0 mps 764 mmHg 88%
    10:00 -23°C° 0 mm 0 mps 765 mmHg 87%
    11:00 -22°C° 0 mm 0 mps 765 mmHg 87%
    12:00 -21°C° 0 mm 1 mps 765 mmHg 87%
    13:00 -20°C° 0 mm 1 mps 765 mmHg 87%
    14:00 -20°C° 0 mm 1 mps 765 mmHg 87%
    15:00 -21°C° 0 mm 1 mps 765 mmHg 87%
    16:00 -21°C° 0 mm 1 mps 765 mmHg 87%
    17:00 -22°C° 0 mm 1 mps 765 mmHg 86%
    18:00 -22°C° 0 mm 1 mps 765 mmHg 85%
    19:00 -23°C° 0 mm 1 mps 765 mmHg 85%
    20:00 -26°C° 0 mm 2 mps 765 mmHg 84%
    21:00 -26°C° 0 mm 2 mps 765 mmHg 84%
    22:00 -26°C° 0 mm 2 mps 765 mmHg 83%
    23:00 -25°C° 0 mm 2 mps 765 mmHg 83%

    25 January, Friday

    Time Temperature Precipitation Wind Pressure Humidity
    00:00 -25°C° 0 mm 2 mps 765 mmHg 82%
    01:00 -25°C° 0 mm 2 mps 764 mmHg 82%
    02:00 -25°C° 0 mm 2 mps 764 mmHg 81%
    03:00 -25°C° 0 mm 2 mps 764 mmHg 80%
    04:00 -25°C° 0 mm 2 mps 764 mmHg 79%
    05:00 -27°C° 0 mm 3 mps 764 mmHg 80%
    06:00 -27°C° 0 mm 3 mps 763 mmHg 80%
    07:00 -27°C° 0 mm 3 mps 763 mmHg 80%
    08:00 -26°C° 0 mm 3 mps 763 mmHg 81%
    09:00 -26°C° 0 mm 3 mps 763 mmHg 82%
    10:00 -25°C° 0 mm 3 mps 763 mmHg 83%
    11:00 -24°C° 0 mm 3 mps 763 mmHg 82%
    12:00 -22°C° 0 mm 3 mps 762 mmHg 82%
    13:00 -21°C° 0 mm 3 mps 762 mmHg 81%
    14:00 -21°C° 0 mm 3 mps 762 mmHg 82%
    15:00 -19°C° 0 mm 3 mps 761 mmHg 84%
    16:00 -19°C° 0 mm 3 mps 761 mmHg 85%
    17:00 -19°C° 0 mm 3 mps 761 mmHg 85%
    18:00 -19°C° 0 mm 3 mps 761 mmHg 84%
    19:00 -18°C° 0 mm 3 mps 761 mmHg 84%
    20:00 -18°C° 0 mm 3 mps 761 mmHg 84%
    21:00 -18°C° 0 mm 3 mps 760 mmHg 85%
    22:00 -18°C° 0 mm 4 mps 760 mmHg 85%
    23:00 -18°C° 0 mm 4 mps 760 mmHg 87%
    Show more